カタログに戻る

YUNHAI 2-1C

運用中科学LEO
NORAD 43911·PAYLOAD·🇨🇳 China

打ち上げ Dec 29, 2018 から Jiuquan Satellite Launch Center

Loading…

次のパス (今後24時間)

TLE

最新Source: Space-Track

元期: Sep 14, 2026, 14:12 UTC

1 43911U 18112C   26257.59212281  .00000016  00000-0  69544-4 0  9992
2 43911  50.0134 327.9443 0000584 121.8877 238.2095 14.29026499404571

AllMySatでYUNHAI 2-1Cをリアルタイム追跡

Download on the App Store